Location: Austin
(30.3000°N, 97.7500°W)
Time: 04:07:42
(UTC-06:00)

Hubble Space Telescope - Pass Details

Date: 20 November 2023
Orbit: 518 x 522 km, 28.5° (Epoch: 04 December)

Event Time Altitude Azimuth Distance (km) Brightness Sun altitude
Rises 19:52:36 0° 231° (SW) 2,624 5.1 -30.1°
Reaches altitude 10° 19:55:04 10° 219° (SW) 1,740 3.9 -30.6°
Enters shadow 19:55:43 13° 213° (SSW) 1,532 3.5 -30.7°
